RH
16 17 20 19 19 15 15 15 17 18 24 29 33 38 37 36 31 34 40 39 43 70 86 92 89 90 93 94 95 96 96 93 72 54 70 80 71 68 77 79 76 78 80
18 18 20 20 19 16 14 15 17 18 21 29 33 41 41 40 40 36 40 36 39 35 34 37 38 35 45 71 92 94 89 86 76 69 87 99 99 75 76 68 83 94 96
19 18 20 20 19 17 16 15 15 17 22 29 35 43 46 47 48 45 38 38 38 38 38 36 35 34 32 32 39 74 75 66 57 70 61 87 97 99 94 81 99 97 91
21 19 20 21 18 16 16 15 16 16 22 28 33 43 47 45 50 48 43 45 44 43 40 34 32 32 32 32 38 64 59 57 55 56 57 81 99 97 97 95 85 79 74
22 21 22 21 18 16 16 18 17 19 22 29 35 42 48 46 47 48 46 46 48 48 40 35 34 34 33 34 36 41 56 61 81 91 98 100 100 98 96 96 93 86 87
25 24 24 23 19 17 18 19 19 20 23 29 38 45 51 45 44 48 52 50 49 41 36 34 34 34 35 36 37 38 39 51 80 98 97 99 96 85 89 94 93 90 75
29 27 28 26 21 19 19 20 21 22 26 32 41 54 55 49 52 53 53 50 44 42 42 40 36 37 38 39 39 41 44 48 74 96 92 96 98 97 95 94 98 94 98
33 31 31 28 22 21 20 21 22 22 26 35 42 48 59 63 60 57 55 51 57 57 52 42 39 39 39 38 38 39 41 44 48 56 89 97 99 99 94 94 92 95 96
37 34 33 30 23 22 22 23 25 25 24 31 37 34 50 54 59 60 57 62 62 53 44 41 33 27 23 18 16 18 23 28 34 37 50 80 93 92 92 95 99 98 96
41 38 35 32 26 24 25 26 26 27 27 25 31 29 27 29 36 51 58 62 56 43 32 14 8 6 6 5 8 14 11 7 6 6 8 48 92 91 90 91 91 93 90
44 42 39 33 29 27 28 28 28 29 28 28 27 28 30 30 30 32 39 42 39 16 6 6 5 5 4 6 13 12 5 4 4 4 5 57 92 92 94 97 97 94 97
45 47 42 35 31 29 30 31 31 32 31 30 30 30 29 28 28 26 24 14 7 6 5 5 6 5 5 11 9 5 5 4 4 5 6 63 93 92 82 91 93 93 94
51 50 43 36 32 31 33 34 34 34 34 34 32 25 22 17 11 7 6 6 6 5 5 8 6 6 13 8 7 6 6 6 6 6 6 10 17 15 16 43 90 93 93
57 53 43 36 34 34 36 37 37 38 35 29 19 13 8 7 6 6 6 6 6 6 5 6 6 11 8 7 8 8 8 8 8 8 8 8 8 8 12 24 65 76 91
57 50 43 39 38 38 39 41 43 38 26 15 8 7 6 6 6 6 6 6 7 15 22 7 7 6 7 6 7 9 11 10 10 10 10 9 9 10 21 46 82 91 92
62 55 55 50 44 54 65 56 44 20 10 8 7 7 6 6 6 6 6 6 7 11 17 10 8 8 8 8 8 8 8 9 8 9 10 10 9 12 23 74 89 90 89
81 80 63 74 88 68 56 45 19 10 8 7 7 6 6 6 7 7 7 7 8 11 15 13 12 11 11 12 13 18 24 23 16 13 12 10 10 9 10 14 47 90 97
98 94 98 73 57 54 30 11 9 8 7 7 7 8 8 9 9 9 10 10 10 13 17 18 17 16 15 14 18 22 25 21 18 15 14 13 15 17 20 19 18 20 28
100 75 62 57 55 32 14 10 8 8 8 8 9 10 10 10 11 12 12 13 14 16 19 23 27 24 22 18 20 19 23 19 18 16 15 15 20 27 32 25 26 28 29
77 70 65 58 34 14 10 8 8 8 9 10 10 10 11 12 13 14 15 17 20 22 24 26 31 32 30 24 22 26 30 22 26 20 16 21 28 32 28 24 24 30 39
83 74 62 27 13 10 9 8 9 10 10 10 11 12 13 15 16 17 19 22 27 34 38 38 41 43 39 36 34 35 42 48 43 32 32 32 38 30 26 28 28 41 42
97 97 87 43 18 9 10 10 10 10 10 12 13 15 16 17 18 21 26 30 35 42 46 49 54 60 63 65 52 53 54 63 97 91 96 68 63 43 37 34 31 33 36
99 70 18 11 10 10 11 12 11 12 13 14 16 16 17 19 23 27 30 33 36 38 46 61 87 89 94 86 74 65 70 94 96 90 95 87 76 55 42 36 32 35 37
77 22 13 11 12 13 13 12 13 14 16 18 18 18 19 21 25 33 36 40 44 45 50 60 66 67 71 68 76 86 99 87 86 64 62 77 82 66 55 40 34 33 39
19 14 13 13 13 14 14 14 15 18 19 17 16 18 25 30 32 33 47 75 82 82 80 76 74 80 82 80 86 99 95 99 98 83 92 88 79 86 69 45 36 37 46
14 13 13 15 15 15 15 17 19 18 16 17 20 27 33 35 36 44 94 95 93 74 86 81 77 66 62 66 77 90 87 95 94 94 80 93 96 90 96 73 42 38 38
Wind_Speed
17 17 16 15 14 13 12 12 13 13 13 13 13 12 12 11 11 10 10 8 8 9 10 10 10 11 13 12 11 11 10 10 10 9 8 8 3 4 3 3 8 12 14
16 16 16 15 14 13 12 12 12 12 13 13 13 13 11 10 9 9 8 7 7 6 8 10 10 11 12 12 11 11 11 10 10 9 9 10 10 8 5 4 6 10 16
16 16 16 15 14 13 12 12 12 12 12 13 13 12 11 10 8 7 7 6 6 7 9 10 11 12 12 13 13 11 13 12 12 11 9 7 10 10 12 3 6 7 9
17 17 17 16 14 14 13 12 11 12 13 13 12 13 11 10 8 7 6 5 5 6 8 11 11 12 12 13 13 12 13 13 13 13 11 10 10 10 9 10 11 12 12
18 17 17 16 15 14 14 13 12 11 14 14 13 13 12 10 7 6 5 4 4 5 8 10 12 12 13 12 12 12 12 13 15 13 12 11 12 14 14 13 11 10 13
19 19 18 17 17 15 14 14 12 14 14 14 14 13 12 10 6 5 4 3 3 4 7 10 12 13 12 12 12 12 12 12 11 12 12 12 11 9 9 11 14 15 13
20 19 19 18 18 16 15 13 14 14 16 17 17 15 13 8 6 6 5 3 1 4 8 12 13 13 13 12 12 12 11 11 11 9 8 9 13 12 13 12 13 12 15
20 19 19 18 17 16 16 14 12 14 16 18 16 15 11 9 9 7 6 5 3 6 10 14 15 14 14 15 15 15 15 14 14 14 14 13 14 14 14 16 15 15 15
20 18 18 17 17 16 15 15 13 12 15 17 15 8 7 6 14 11 9 7 6 7 12 15 15 15 15 16 16 16 17 18 18 18 18 17 17 17 17 19 17 15 17
21 19 18 18 17 17 16 15 14 13 11 12 16 12 8 8 8 7 9 9 7 11 14 13 12 14 16 17 17 17 18 19 20 21 21 19 18 17 17 18 18 18 17
23 21 20 19 18 17 15 14 13 12 11 10 9 10 7 5 4 4 6 7 8 10 11 11 14 14 18 17 16 19 23 22 21 21 21 19 17 16 17 19 21 22 22
26 24 21 19 18 17 15 14 13 11 10 8 8 6 4 3 3 2 4 7 9 9 12 13 11 18 18 16 20 23 23 22 21 21 20 17 17 18 20 21 22 22 22
29 26 24 22 19 17 15 13 11 9 8 6 4 3 3 1 0 2 5 8 11 16 13 12 20 19 15 23 23 23 23 23 22 22 21 21 22 24 24 24 22 22 21
28 25 23 20 19 16 15 12 10 9 6 4 3 1 0 1 2 4 7 10 13 15 18 20 23 20 25 26 25 24 24 24 24 24 24 25 26 26 25 25 23 23 21
27 24 22 20 18 16 14 11 7 6 6 5 4 1 2 3 5 7 9 12 13 10 17 23 22 25 26 26 26 26 25 25 25 25 26 26 26 26 26 25 23 23 22
29 27 24 22 22 17 14 13 11 9 7 6 2 1 3 5 7 9 11 13 15 15 14 22 24 25 25 26 25 25 24 24 24 24 25 26 28 28 27 24 23 23 23
34 31 30 27 21 17 19 17 13 10 7 4 2 2 4 6 9 11 13 14 16 18 21 24 25 25 25 24 23 22 22 22 23 23 23 23 24 26 28 29 26 23 23
32 31 26 23 23 22 18 15 12 9 6 4 3 4 6 8 10 13 15 17 18 20 23 26 27 26 25 23 23 23 22 23 25 24 24 24 25 23 23 25 27 29 30
35 30 27 25 22 20 17 14 11 8 6 4 4 6 9 12 14 15 18 19 19 20 22 26 28 28 28 26 26 26 25 25 25 24 24 25 23 22 23 24 24 25 27
35 30 27 24 22 19 16 13 11 8 5 4 6 8 12 14 17 18 19 20 21 22 23 25 27 28 28 28 27 28 28 26 27 26 25 24 24 24 24 24 24 25 25
32 29 26 23 21 17 14 13 9 6 5 6 8 11 14 16 18 20 21 21 21 22 23 24 26 27 28 27 26 27 28 29 28 27 28 23 27 28 26 27 26 23 23
31 26 23 21 21 17 14 10 7 5 7 9 11 14 17 18 19 19 19 19 20 21 23 24 25 27 25 25 26 24 26 27 23 20 24 29 29 30 30 28 25 25 26
28 26 27 23 18 14 11 8 6 7 10 13 16 18 18 19 19 20 20 20 20 21 21 21 24 26 27 25 24 24 23 23 26 27 28 31 30 32 29 26 27 28 25
27 29 24 20 15 12 9 7 8 11 14 16 18 19 20 19 19 20 19 19 19 19 18 19 21 23 25 23 23 23 24 27 29 31 31 32 28 31 30 29 28 24 24
28 24 20 17 13 9 7 9 11 14 16 19 20 19 17 17 17 17 18 18 18 20 18 19 19 19 20 20 21 24 26 27 29 30 26 28 26 31 34 31 28 29 30
24 21 18 14 10 8 8 11 15 18 19 18 17 15 15 16 15 14 13 16 20 19 19 21 22 21 21 22 22 23 26 25 28 29 23 21 25 26 27 25 33 35 34
Wind_Direction
173 169 166 163 158 153 148 143 141 138 138 137 134 128 123 118 103 98 100 95 93 80 66 58 53 48 46 37 30 29 20 18 18 20 24 14 7 250 273 311 336 328 328
177 174 172 167 164 158 154 150 145 141 142 141 139 135 132 126 115 96 107 92 87 73 52 45 40 35 31 35 31 19 16 22 14 16 23 22 12 19 343 280 355 353 350
176 176 176 172 169 162 161 155 150 148 150 146 145 142 138 130 124 108 107 96 88 66 48 38 31 24 21 17 16 22 14 12 11 5 11 21 356 19 8 14 336 349 338
176 177 178 177 173 168 165 162 159 156 157 152 149 147 145 139 132 113 106 95 82 59 39 28 22 18 15 15 17 16 13 11 8 3 1 3 3 7 7 359 353 348 346
177 180 180 180 178 175 169 167 167 164 159 156 154 153 150 143 134 124 122 99 71 50 29 21 14 8 6 5 5 5 6 7 11 13 3 4 3 4 356 353 347 349 346
181 182 184 184 181 179 176 171 172 164 162 161 157 154 154 155 152 151 148 119 75 27 13 8 360 356 355 353 353 351 350 353 5 9 2 352 352 338 339 336 334 337 335
187 186 189 187 185 180 177 173 173 169 163 162 161 152 149 157 166 160 159 154 70 355 353 350 346 343 342 343 340 338 338 338 348 349 330 336 338 335 337 341 322 317 329
193 191 193 191 187 185 179 176 179 174 169 165 172 159 146 150 169 179 183 198 283 336 336 338 335 333 332 332 330 328 325 323 319 319 332 334 330 325 323 321 310 313 309
198 195 192 193 189 186 187 181 178 182 187 181 184 179 168 184 185 207 217 238 290 326 332 330 328 328 331 332 328 324 322 323 319 316 316 321 325 326 323 311 306 300 294
196 194 193 193 191 188 189 186 185 188 188 185 181 202 194 172 176 177 213 234 261 313 320 323 328 331 334 330 327 326 324 320 316 314 313 319 326 324 319 301 297 295 285
193 195 193 193 194 190 188 188 186 184 184 193 193 175 163 172 180 178 192 231 270 305 323 325 329 331 328 325 320 321 320 319 316 312 312 322 325 315 308 310 308 306 305
194 194 192 192 193 191 190 190 184 181 182 182 186 175 187 201 221 255 272 290 311 322 329 327 326 327 326 323 319 319 319 319 319 319 316 319 321 313 310 312 311 311 309
195 193 189 190 191 189 189 189 184 181 179 184 202 194 209 227 306 333 320 323 324 326 329 327 330 333 329 324 326 326 325 325 325 325 322 318 314 314 314 314 316 312 308
194 190 185 187 187 185 187 186 185 184 185 208 230 189 198 339 349 333 331 333 331 323 323 327 331 332 327 327 328 326 326 327 327 328 327 323 318 316 314 311 311 309 310
190 185 183 182 181 180 182 182 190 207 201 195 190 154 6 341 338 336 331 328 331 324 316 321 325 323 322 324 326 324 324 324 326 326 325 322 319 316 312 310 311 311 310
187 185 186 184 180 187 198 206 204 198 179 180 180 28 315 319 324 325 328 328 324 316 304 313 318 320 320 320 318 313 312 312 315 317 319 318 316 315 313 313 311 307 305
199 191 187 197 198 191 194 196 190 185 186 200 246 287 291 318 323 322 324 326 322 317 310 311 315 319 317 315 313 312 314 317 319 319 317 315 310 307 304 303 305 304 297
204 196 190 177 177 183 183 181 187 185 193 211 244 274 302 314 319 324 323 321 317 313 311 311 314 317 316 318 313 311 313 315 316 317 316 316 314 315 310 303 298 296 297
183 169 170 176 180 184 185 183 193 199 200 215 260 291 310 315 318 317 315 312 311 308 307 307 311 316 318 320 315 313 313 313 311 313 316 313 312 315 316 314 306 301 298
163 164 176 181 184 183 186 193 198 197 209 240 282 304 310 313 315 313 311 311 308 307 307 306 308 313 317 319 316 315 314 314 312 314 313 311 312 317 316 315 309 308 308
163 168 171 182 182 188 193 195 195 209 243 284 299 307 311 313 312 312 310 309 308 308 307 306 307 311 317 319 315 313 310 312 314 315 314 315 317 320 320 317 312 308 312
167 172 178 194 192 188 192 198 213 248 277 291 303 310 313 309 308 305 303 304 306 306 304 304 305 305 311 315 315 308 306 310 312 313 312 315 319 319 317 313 314 313 312
166 169 178 183 189 193 202 217 246 275 293 305 310 312 310 311 309 308 307 305 300 297 294 296 298 302 306 310 310 304 304 304 304 306 306 307 312 315 316 310 318 317 312
169 178 180 183 189 195 217 246 275 295 307 311 313 313 314 314 313 312 312 310 308 303 306 301 299 302 302 305 305 303 303 305 303 304 307 303 309 313 315 316 320 319 323
175 176 180 186 197 212 242 276 295 304 306 309 310 311 309 309 314 316 312 312 315 309 308 303 299 299 300 300 300 298 297 306 301 304 299 298 307 312 316 318 322 321 321
177 181 186 193 211 237 269 295 301 303 305 306 307 309 308 313 315 313 317 310 308 319 320 314 307 308 308 303 296 292 299 297 297 299 302 292 304 314 318 316 320 319 321